Location: Unspecified
(38.9820°N, 94.4650°W)
Time: 15:08:11
(UTC-05:00)

Okean 3 - Visible Passes

Search period start: 23 July 2014 00:00
Search period end: 02 August 2014 00:00
Orbit: 584 x 610 km, 82.5° (Epoch: 23 July)

Date Brightness Start Highest point End Pass type
(mag) Time Alt. Az. Time Alt. Az. Time Alt. Az.
23 Jul 3.9 21:06:40 10° NNW 21:10:52 66° W 21:15:01 10° S visible
24 Jul 4.9 21:17:17 10° NNW 21:21:14 39° W 21:25:08 10° SSW visible
25 Jul 5.8 21:28:08 10° NW 21:31:33 24° W 21:34:56 10° SW visible
26 Jul 6.3 21:39:21 10° NW 21:41:49 15° W 21:44:16 10° WSW visible
31 Jul 6.3 20:53:47 10° NW 20:56:40 18° W 20:59:33 10° SW visible
01 Aug 6.8 21:05:38 10° WNW 21:06:54 11° W 21:08:11 10° WSW visible
